STARLINK-33939, 63702

Orbit data source: Space-Track

STARLINK-33939, 63702 is a payload satellite owned by SpaceX/Seattle (US) in LEO that was launched on Mon, 28 Apr 2025 UTC via an FALCON 9 launch vehicle from the Air Force Western Test Range (AFWTR). Payload-class satellites include a variety of spacecraft equipped with specific instruments for various scientific and technological missions. These include communications satellites like Starlink; space stations such as the ISS; scientific satellites like the Hubble; Earth observation satellites from companies like Planet Labs, Umbra, and HawkEye 360; GPS; miniature CubeSats for education and research; and military/defense satellites.

Loading next visibility...
Identifier
63702, 2025-087F
Orbit
LEO
Country
Flag of USUS
Related business
Manufacturer
SpaceX/Seattle
Mission
Operational Commercial Communications
Bus & Motor
STARLINK V2MO, Unknown motor
Mass
575 kg wet, ~530 kg dry
Launch date (UTC)
2025-04-28 (1 year ago)
Launch vehicle
FALCON 9
Launch site
Air Force Western Test Range (AFWTR)
Object type
Payload
Rocket body
Debris
Shape & HBR
Box + 2 Pan, 17.7 m
Radar Cross Section
36.964 m², Large (>1 m²)

Expand to show TLE details & history
Last TLE update: 21 hours ago

TLE from 21 hours ago
0 STARLINK-33939
1 63702U 25087F   26170.95742081  .00013584  00000-0  44845-3 0  9991
2 63702  53.1594 104.0799 0001391  86.4743 273.6417 15.31717674 64869
Epoch: 2026-06-19T22:58Z
TLE epoch observation values (Epoch: 2026-06-19T22:58:41.157Z)
Latitude
-0.00009°
Longitude
-148.7706°
Altitude
471.527 km
Speed
7.632 km/s
True Right ascension
06h 56m 19s
True Declination
0° 00' 00"
Sunlit
Object was in daylight at epoch
Visualization orbit readout
Latitude
Unknown
Longitude
Unknown
Altitude
Unknown
Speed
Unknown
Apparent Right ascension
Unknown
Apparent Declination
Unknown
Sunlit
N/A
Visualization observer readout
Local Sidereal Time
07:18:45
Azimuth
Unknown
Elevation
Unknown
Doppler factor
Unknown
Orbital elements
Apogee altitude
471.897 km
Perigee altitude
469.991 km
Semi-major axis
6,849.081 km
Eccentricity
0.00014
Inclination
53.1594°
RAAN
104.0799°
Arg. of periapsis
86.4743°
True anomaly
273.62579°
Mean anomaly
273.6417°
Eccentric anomaly
273.63375°
Mean motion
3.82908 °/min
Orbital period
94.02 mins
BSTAR
0.00044845
Loading maneuver chart data...
Computing Atmospheric mass density...
Loading historical data...
Loading historical data...
Loading historical data...
Loading historical data...
Loading historical data...
Loading historical data...
Loading historical data...

Documentation

Showing up to 5 results
|